Temp
52 51 51 50 51 51 50 49 48 49 49 49 49 50 50 50 50 50 51 52 52 53 54 54 54 54 54 55 55 54 52 52 50 50 49 50 49 48 48 47 47 46
51 50 49 49 49 48 49 49 49 49 49 49 49 49 48 48 48 50 50 51 50 51 52 53 53 53 53 53 52 52 51 50 51 51 50 48 48 48 48 48 47 47
49 49 49 49 50 49 48 48 48 49 49 49 48 48 48 47 48 48 49 50 50 49 50 50 51 52 52 52 52 51 50 49 48 48 47 47 48 47 47 47 46 46
49 50 50 50 49 49 48 47 47 47 47 47 47 47 47 47 47 46 47 46 48 48 48 48 49 49 50 51 50 49 50 50 50 49 48 47 46 47 46 45 45 44
48 49 49 49 48 47 46 47 47 47 47 47 46 45 45 45 45 43 43 43 45 46 45 46 46 47 47 48 49 49 48 47 47 47 46 46 45 44 45 43 43 43
46 48 48 48 47 46 46 46 47 47 47 44 46 44 45 44 44 42 42 42 42 43 44 43 43 43 44 44 44 46 46 45 45 45 44 44 43 41 43 42 42 42
46 45 45 45 44 45 45 46 46 45 46 45 41 43 42 42 41 41 42 41 42 42 43 43 42 42 42 41 41 42 42 43 43 43 43 43 42 41 40 40 41 42
45 43 44 42 43 44 43 44 44 44 43 39 41 41 40 41 41 41 40 41 41 42 42 42 42 43 42 41 42 41 42 42 42 41 42 42 40 41 39 40 40 41
43 43 42 41 42 42 42 42 41 39 38 40 41 39 38 40 40 40 40 40 41 41 42 42 42 42 41 41 41 42 42 41 42 41 41 41 40 41 40 39 39 39
42 41 39 40 41 42 42 41 39 39 38 39 40 38 39 38 39 40 40 40 40 40 41 42 41 40 40 40 41 42 42 42 41 40 41 41 41 41 40 39 39 38
41 39 40 40 41 41 40 40 39 38 38 39 39 39 39 38 37 37 39 39 41 41 41 41 41 41 40 40 40 40 41 42 41 41 40 41 41 41 39 39 39 39
41 40 40 41 41 40 40 39 38 38 38 38 38 40 39 38 39 38 39 39 40 40 41 41 41 41 40 41 40 40 40 40 40 40 40 40 40 40 40 39 39 39
41 41 41 41 41 41 39 38 38 38 38 39 37 39 39 38 37 38 37 39 39 39 40 40 40 40 40 40 40 39 39 39 39 39 39 39 39 39 39 38 38 38
42 42 41 41 41 40 39 39 38 38 38 38 37 37 38 38 38 38 38 37 38 39 39 39 40 40 40 40 40 39 39 38 38 38 38 38 38 38 37 37 38 37
43 42 40 40 39 39 39 39 38 38 37 37 37 37 38 37 37 38 37 36 36 37 37 38 40 40 40 39 39 39 39 39 38 38 38 37 37 36 36 37 36 36
42 41 40 39 38 39 39 38 37 36 36 36 37 36 36 36 36 36 37 37 36 36 36 37 38 40 38 39 40 39 38 39 38 38 38 37 37 36 35 36 36 36
40 40 40 39 39 38 38 37 37 36 36 36 36 36 36 35 35 35 35 35 36 36 36 37 38 38 38 40 40 40 38 37 37 36 37 37 37 36 35 35 35 35
39 39 38 39 38 38 37 36 35 35 35 36 36 35 35 33 34 35 35 35 35 35 36 37 38 38 39 40 40 41 39 37 37 36 36 36 36 36 36 35 34 34
38 38 38 38 38 37 36 35 35 35 35 35 35 35 33 34 35 34 34 34 34 34 35 37 37 39 39 39 40 40 40 38 36 36 36 36 36 36 36 35 34 33
37 37 37 38 37 36 35 35 35 36 36 36 35 34 34 34 34 34 34 34 34 34 35 36 36 38 39 39 40 40 40 39 35 36 36 36 36 36 36 35 34 33
37 37 37 37 36 35 35 35 35 35 35 35 34 34 34 34 34 33 33 33 33 34 35 36 37 38 39 39 39 40 40 39 35 35 35 35 36 36 36 35 34 34
36 36 36 35 35 34 35 35 35 35 35 33 32 32 33 32 32 33 33 33 33 33 34 35 36 38 38 38 39 40 40 37 35 34 35 35 35 36 36 35 35 34
35 35 35 35 34 34 34 35 35 34 33 32 32 32 31 31 32 32 33 33 33 34 34 35 35 36 38 38 39 39 39 36 35 34 34 34 34 34 35 35 35 35
34 34 35 35 34 34 35 34 33 31 32 31 32 31 30 31 31 30 30 31 33 33 34 34 34 34 37 38 39 39 38 35 34 34 33 33 32 33 33 33 34 34
33 33 34 34 34 34 34 33 32 32 29 28 29 29 29 27 29 29 28 29 31 33 34 34 33 33 36 38 38 39 37 34 34 34 32 31 30 30 31 32 32 33
32 32 32 33 33 32 31 31 28 26 26 28 25 27 27 27 28 29 29 29 31 32 33 33 32 32 34 37 38 38 38 34 34 33 32 30 30 29 29 30 31 32
MSLP
1016.52 1016.64 1016.68 1016.82 1016.80 1016.92 1017.08 1017.32 1017.50 1017.60 1017.58 1017.68 1017.70 1017.64 1017.86 1017.90 1018.24 1018.36 1018.42 1018.58 1018.66 1018.70 1018.70 1018.92 1019.02 1018.94 1018.94 1018.92 1018.84 1018.76 1018.84 1019.40 1020.08 1020.12 1020.00 1020.16 1020.40 1020.66 1020.94 1021.24 1021.46 1021.52
1016.28 1016.44 1016.56 1016.66 1016.68 1016.78 1016.82 1016.88 1017.00 1017.10 1017.06 1017.20 1017.26 1017.40 1017.52 1017.74 1017.86 1018.02 1018.10 1018.22 1018.36 1018.40 1018.42 1018.52 1018.62 1018.62 1018.60 1018.68 1018.68 1018.68 1018.82 1018.98 1019.04 1019.26 1019.58 1019.86 1020.00 1020.34 1020.52 1020.70 1020.96 1021.06
1016.22 1016.32 1016.40 1016.38 1016.30 1016.38 1016.50 1016.64 1016.68 1016.68 1016.72 1016.72 1016.94 1017.02 1017.14 1017.36 1017.52 1017.70 1017.84 1017.94 1018.08 1018.16 1018.30 1018.36 1018.34 1018.28 1018.26 1018.26 1018.32 1018.34 1018.42 1018.94 1019.20 1019.16 1019.28 1019.46 1019.68 1019.92 1020.02 1020.36 1020.68 1020.78
1016.12 1016.12 1016.12 1016.10 1016.18 1016.18 1016.34 1016.50 1016.44 1016.46 1016.50 1016.56 1016.46 1016.60 1016.82 1017.02 1017.22 1017.38 1017.58 1017.76 1017.86 1017.92 1018.00 1018.12 1018.20 1018.26 1018.16 1018.08 1018.18 1018.26 1018.16 1018.08 1018.10 1018.56 1019.02 1019.28 1019.42 1019.46 1019.60 1019.96 1020.24 1020.52
1016.04 1016.04 1016.06 1016.00 1016.10 1016.28 1016.42 1016.36 1016.14 1016.16 1016.16 1016.02 1016.26 1016.42 1016.58 1016.78 1017.00 1017.16 1017.36 1017.52 1017.66 1017.76 1017.88 1017.90 1018.04 1018.18 1018.26 1018.22 1018.14 1018.08 1018.12 1018.24 1018.38 1018.64 1018.84 1018.96 1019.04 1019.30 1019.36 1019.74 1019.98 1020.16
1015.68 1015.76 1015.80 1015.90 1015.98 1016.20 1016.30 1016.14 1016.02 1016.06 1016.00 1016.08 1015.96 1016.14 1016.18 1016.36 1016.56 1016.78 1017.02 1017.22 1017.40 1017.56 1017.68 1017.74 1017.76 1017.92 1018.16 1018.20 1018.22 1018.04 1017.94 1018.02 1018.14 1018.44 1018.66 1018.78 1018.94 1019.20 1019.32 1019.58 1019.68 1019.80
1015.36 1015.58 1015.62 1015.78 1015.86 1015.90 1015.92 1015.74 1015.78 1015.90 1015.88 1015.84 1016.08 1015.94 1016.02 1016.06 1016.16 1016.34 1016.60 1016.82 1017.02 1017.20 1017.38 1017.52 1017.58 1017.60 1017.86 1018.10 1018.18 1018.08 1018.00 1017.96 1018.10 1018.38 1018.48 1018.58 1018.78 1019.02 1019.22 1019.34 1019.48 1019.58
1015.04 1015.30 1015.42 1015.64 1015.68 1015.64 1015.64 1015.48 1015.52 1015.64 1015.84 1016.12 1015.96 1015.86 1016.02 1015.88 1015.88 1015.98 1016.20 1016.48 1016.70 1016.88 1017.12 1017.28 1017.36 1017.26 1017.46 1017.72 1017.82 1017.86 1017.86 1017.98 1018.04 1018.22 1018.32 1018.44 1018.68 1018.78 1019.02 1019.10 1019.16 1019.34
1014.98 1014.96 1015.06 1015.20 1015.24 1015.18 1015.22 1015.26 1015.46 1015.60 1015.78 1015.86 1015.86 1015.94 1016.04 1015.86 1015.80 1015.88 1015.92 1016.12 1016.34 1016.52 1016.78 1017.00 1017.10 1017.12 1017.24 1017.38 1017.40 1017.44 1017.46 1017.62 1017.70 1017.86 1017.96 1018.08 1018.34 1018.38 1018.52 1018.78 1019.10 1019.18
1014.84 1014.88 1015.02 1014.88 1014.86 1014.68 1014.80 1014.78 1015.08 1015.24 1015.46 1015.54 1015.54 1015.82 1015.80 1015.84 1015.82 1015.74 1015.82 1015.86 1015.96 1016.18 1016.38 1016.56 1016.78 1016.96 1017.10 1017.12 1017.04 1017.10 1017.16 1017.24 1017.44 1017.56 1017.60 1017.66 1017.76 1017.90 1018.18 1018.56 1018.62 1018.68
1014.46 1014.74 1014.80 1014.60 1014.38 1014.42 1014.52 1014.64 1014.84 1014.96 1015.16 1015.14 1015.28 1015.36 1015.44 1015.64 1015.70 1015.72 1015.64 1015.66 1015.64 1015.74 1015.96 1016.16 1016.34 1016.60 1016.78 1016.88 1016.90 1016.90 1016.92 1016.96 1017.06 1017.18 1017.28 1017.36 1017.42 1017.54 1017.80 1018.12 1018.26 1018.18
1013.78 1014.12 1014.16 1014.08 1014.14 1014.22 1014.18 1014.44 1014.68 1014.76 1014.78 1014.92 1014.98 1014.92 1015.08 1015.22 1015.26 1015.42 1015.36 1015.32 1015.32 1015.36 1015.50 1015.70 1016.00 1016.26 1016.36 1016.42 1016.56 1016.68 1016.74 1016.74 1016.78 1016.88 1017.00 1017.12 1017.22 1017.34 1017.52 1017.72 1017.82 1017.94
1013.58 1013.44 1013.26 1013.26 1013.26 1013.26 1013.56 1013.96 1014.12 1014.28 1014.48 1014.38 1014.62 1014.72 1014.70 1014.76 1014.98 1015.04 1015.10 1015.10 1015.08 1015.18 1015.28 1015.42 1015.68 1015.96 1016.14 1016.26 1016.38 1016.48 1016.52 1016.56 1016.64 1016.76 1016.88 1016.98 1017.02 1017.08 1017.24 1017.42 1017.56 1017.78
1012.88 1012.72 1013.04 1013.20 1013.28 1013.40 1013.34 1013.22 1013.42 1013.70 1013.82 1014.00 1014.28 1014.30 1014.32 1014.40 1014.54 1014.70 1014.80 1014.92 1014.84 1014.90 1014.98 1015.14 1015.30 1015.58 1015.84 1016.02 1016.18 1016.30 1016.38 1016.42 1016.46 1016.56 1016.70 1016.80 1016.86 1016.94 1017.06 1017.22 1017.40 1017.62
1012.36 1012.46 1012.70 1012.84 1012.94 1013.14 1013.22 1013.22 1013.14 1013.10 1013.36 1013.66 1013.80 1013.80 1013.94 1014.02 1014.22 1014.42 1014.58 1014.68 1014.74 1014.76 1014.82 1014.98 1015.04 1015.14 1015.48 1015.80 1016.04 1016.20 1016.26 1016.32 1016.36 1016.42 1016.50 1016.58 1016.72 1016.86 1017.02 1017.18 1017.38 1017.54
1012.28 1012.34 1012.38 1012.44 1012.72 1012.62 1012.52 1012.72 1013.02 1013.26 1013.24 1013.30 1013.40 1013.48 1013.62 1013.78 1014.02 1014.22 1014.28 1014.26 1014.42 1014.58 1014.66 1014.78 1014.84 1014.90 1015.14 1015.42 1015.62 1015.80 1015.98 1016.08 1016.16 1016.24 1016.34 1016.42 1016.56 1016.76 1016.96 1017.06 1017.12 1017.32
1012.24 1012.06 1012.18 1012.32 1012.22 1012.32 1012.40 1012.52 1012.68 1012.98 1013.24 1013.20 1013.22 1013.38 1013.46 1013.66 1013.90 1014.00 1014.06 1014.14 1014.14 1014.22 1014.38 1014.46 1014.54 1014.66 1014.86 1015.08 1015.26 1015.46 1015.72 1015.88 1016.00 1016.14 1016.26 1016.30 1016.38 1016.52 1016.70 1016.92 1017.10 1017.30
1011.88 1011.90 1012.00 1011.90 1012.12 1012.04 1012.06 1012.22 1012.44 1012.66 1012.78 1012.94 1013.08 1013.18 1013.34 1013.68 1013.82 1013.72 1013.84 1013.92 1013.96 1014.04 1014.06 1014.08 1014.16 1014.28 1014.50 1014.68 1014.88 1015.04 1015.32 1015.58 1015.78 1015.94 1016.08 1016.12 1016.16 1016.24 1016.42 1016.70 1016.96 1017.24
1011.62 1011.70 1011.58 1011.60 1011.60 1011.66 1011.88 1012.04 1012.04 1012.06 1012.12 1012.26 1012.38 1012.60 1013.04 1013.24 1013.26 1013.56 1013.64 1013.76 1013.80 1013.80 1013.84 1013.84 1013.92 1014.04 1014.20 1014.36 1014.54 1014.76 1015.00 1015.34 1015.60 1015.68 1015.80 1015.84 1015.92 1016.02 1016.20 1016.48 1016.80 1017.16
1011.40 1011.40 1011.30 1011.24 1011.36 1011.54 1011.66 1011.74 1011.86 1011.58 1011.48 1011.56 1011.78 1012.18 1012.36 1012.62 1012.94 1013.14 1013.32 1013.42 1013.44 1013.48 1013.54 1013.64 1013.72 1013.84 1014.00 1014.14 1014.32 1014.54 1014.76 1015.04 1015.34 1015.48 1015.56 1015.62 1015.70 1015.84 1015.98 1016.20 1016.46 1016.82
1011.24 1011.24 1011.14 1011.12 1011.26 1011.32 1011.38 1011.40 1011.46 1011.56 1011.70 1011.72 1011.76 1011.76 1011.94 1012.12 1012.40 1012.72 1012.84 1012.94 1013.06 1013.14 1013.22 1013.28 1013.38 1013.58 1013.76 1013.94 1014.12 1014.36 1014.58 1014.82 1015.16 1015.34 1015.44 1015.54 1015.62 1015.68 1015.78 1015.98 1016.32 1016.68
1011.14 1011.02 1011.02 1011.06 1011.14 1011.20 1011.20 1011.08 1011.14 1011.22 1011.34 1011.64 1011.84 1011.94 1012.02 1012.10 1012.28 1012.46 1012.58 1012.70 1012.76 1012.84 1012.94 1013.00 1013.12 1013.28 1013.46 1013.68 1013.90 1014.14 1014.42 1014.76 1015.04 1015.22 1015.30 1015.42 1015.50 1015.56 1015.70 1015.94 1016.24 1016.58
1011.20 1011.02 1010.82 1010.84 1010.94 1011.02 1010.96 1010.94 1010.98 1011.08 1011.26 1011.50 1011.62 1011.74 1011.84 1011.96 1012.00 1012.12 1012.28 1012.40 1012.54 1012.68 1012.78 1012.88 1013.02 1013.14 1013.26 1013.44 1013.68 1013.94 1014.28 1014.62 1014.90 1015.10 1015.20 1015.30 1015.38 1015.50 1015.68 1015.94 1016.24 1016.54
1011.06 1010.98 1010.72 1010.58 1010.64 1010.58 1010.60 1010.76 1010.96 1011.16 1011.28 1011.54 1011.42 1011.60 1011.78 1011.86 1012.00 1012.18 1012.26 1012.28 1012.34 1012.48 1012.60 1012.74 1012.84 1013.02 1013.18 1013.34 1013.54 1013.76 1014.04 1014.40 1014.72 1014.94 1015.14 1015.32 1015.54 1015.70 1015.84 1016.08 1016.36 1016.62
1010.98 1010.92 1010.76 1010.56 1010.40 1010.30 1010.44 1010.52 1010.70 1010.90 1011.18 1011.56 1011.60 1011.68 1011.76 1012.00 1012.18 1012.18 1012.20 1012.22 1012.30 1012.42 1012.56 1012.68 1012.82 1013.04 1013.14 1013.30 1013.46 1013.66 1013.94 1014.32 1014.62 1014.86 1015.14 1015.44 1015.76 1016.08 1016.20 1016.28 1016.48 1016.68
1010.94 1010.86 1010.70 1010.58 1010.30 1010.28 1010.34 1010.30 1010.58 1010.88 1011.10 1011.34 1011.60 1011.72 1011.84 1012.02 1012.10 1012.06 1012.04 1012.18 1012.36 1012.48 1012.56 1012.62 1012.82 1013.04 1013.16 1013.24 1013.38 1013.58 1013.80 1014.22 1014.54 1014.84 1015.06 1015.42 1015.70 1015.96 1016.34 1016.56 1016.62 1016.90
Wind_Speed
9 8 10 10 10 9 9 9 8 9 10 8 10 9 9 8 7 8 9 9 9 10 11 10 7 7 7 9 10 10 11 12 10 10 11 12 13 14 14 15 14 11
10 9 8 8 8 7 8 8 9 10 10 9 9 7 7 6 7 8 9 9 9 10 10 11 10 8 8 8 8 8 7 9 14 11 12 13 13 13 15 15 13 12
8 9 9 11 11 10 10 8 8 9 9 9 8 8 7 7 8 8 8 9 9 10 10 9 10 10 9 9 9 9 9 9 9 7 8 11 12 12 13 12 11 13
9 10 10 11 10 10 7 8 9 8 7 8 9 8 8 7 7 8 8 8 9 9 9 9 9 8 8 8 7 7 9 11 12 11 11 10 10 12 13 11 11 10
8 9 9 9 7 7 6 9 11 9 10 10 6 7 7 7 7 7 7 8 8 8 8 9 7 8 7 7 8 9 8 8 7 7 9 10 10 10 11 10 10 12
8 8 8 8 7 7 8 10 10 9 9 8 9 6 8 8 8 8 8 8 8 8 8 8 8 7 7 7 6 8 7 8 8 9 10 11 10 8 8 8 10 11
9 7 8 7 7 8 9 11 9 8 9 8 5 8 7 8 8 9 9 9 9 9 9 8 8 8 7 6 6 7 7 7 7 8 10 9 8 8 7 8 9 11
9 7 7 6 8 9 10 11 9 8 7 5 8 7 7 8 9 8 8 8 8 9 8 8 8 8 8 8 9 8 8 7 7 8 9 9 7 9 8 8 9 11
7 8 7 8 9 10 11 10 8 6 5 7 8 6 6 7 8 8 8 8 9 8 8 9 9 8 8 9 10 10 10 8 8 9 10 10 10 10 10 9 9 10
8 8 7 9 10 11 11 10 8 7 6 8 8 6 8 7 6 7 7 8 9 8 9 9 9 8 7 8 10 10 10 10 9 9 9 10 10 10 9 9 11 10
9 8 9 11 12 9 10 9 8 7 7 9 7 8 8 7 7 6 7 8 9 9 9 9 9 9 9 9 9 8 9 10 9 9 9 10 10 10 10 10 10 11
11 9 12 13 11 10 11 9 8 8 8 8 8 9 8 8 9 8 8 9 9 9 9 9 8 9 10 10 10 9 9 9 9 9 9 9 9 8 8 9 10 10
11 12 13 12 13 13 9 8 9 9 9 10 8 9 9 9 8 9 8 8 9 8 8 9 8 8 9 9 9 8 9 9 8 8 8 8 9 9 8 8 8 8
13 13 10 11 9 8 8 9 9 9 10 8 7 10 10 9 10 9 9 8 9 8 8 8 8 8 8 8 8 8 9 9 8 9 9 8 7 7 7 8 8 8
12 10 8 8 8 8 9 10 10 9 8 8 8 9 9 8 8 8 8 8 7 7 7 7 8 8 7 8 8 8 8 8 9 9 9 8 7 7 7 7 7 7
11 9 9 8 8 11 11 9 8 7 7 8 9 8 8 8 7 8 9 9 9 8 7 7 7 6 8 13 11 9 8 8 7 8 8 8 8 8 7 7 8 8
9 10 8 9 10 9 8 8 8 7 7 8 8 7 8 7 7 9 9 8 9 8 8 8 7 6 11 10 12 13 9 8 8 8 8 8 8 8 8 8 6 7
9 9 8 10 8 10 9 7 6 7 8 8 8 8 7 5 8 9 8 8 7 7 8 8 7 9 11 11 13 13 12 8 7 7 7 8 8 9 8 8 8 7
8 8 9 9 10 9 7 6 8 8 9 9 11 9 6 9 10 8 9 7 8 8 8 8 7 9 10 11 14 12 11 10 6 7 7 8 8 8 8 8 8 7
7 8 9 9 7 7 6 7 8 11 10 9 8 7 9 9 8 9 8 9 9 9 8 7 7 9 10 10 14 14 13 11 7 7 7 8 8 8 8 9 9 10
7 7 9 8 6 6 7 8 9 8 7 7 7 9 10 10 10 10 10 9 8 8 7 8 7 9 10 12 13 14 14 12 7 6 6 6 7 8 8 9 9 8
6 8 8 7 6 6 7 9 8 8 9 6 6 6 6 5 6 6 8 8 8 8 7 8 7 10 11 13 14 14 14 9 7 7 7 6 7 7 7 7 8 9
6 7 8 7 6 7 8 8 8 8 6 5 7 7 7 8 8 8 7 8 7 7 8 7 6 8 12 13 13 16 12 7 7 6 6 6 6 6 6 6 7 8
6 7 8 7 6 8 9 7 5 4 5 5 8 7 8 8 6 6 5 6 7 7 8 8 6 6 11 12 13 15 12 7 6 6 4 4 3 4 5 6 7 11
6 6 7 7 7 8 6 6 6 6 3 4 5 4 5 4 4 6 4 4 4 6 7 7 4 4 9 10 12 13 10 6 6 5 5 4 4 3 3 5 7 9
5 6 6 6 8 6 5 6 4 3 4 5 4 4 5 5 4 5 5 4 4 4 5 5 5 4 6 11 12 13 12 6 5 6 6 6 6 7 6 4 6 6
Wind_Direction
217 211 217 217 222 219 214 212 211 216 221 218 221 224 219 219 205 211 218 219 225 231 233 239 244 237 232 225 213 202 192 198 213 215 213 208 213 211 211 211 212 210
221 217 220 223 228 220 222 212 213 213 222 218 222 221 220 205 210 206 213 215 216 225 230 232 231 229 222 216 214 210 213 212 208 200 209 209 212 211 216 215 215 216
222 221 219 221 223 222 219 216 216 219 220 221 218 216 216 204 208 208 212 213 215 218 222 227 231 229 223 219 215 208 202 208 226 219 213 211 209 207 213 211 214 210
231 227 226 230 229 229 219 219 225 224 223 223 219 212 206 206 203 207 210 212 218 220 219 220 228 234 232 226 218 228 223 216 211 201 209 214 213 211 212 208 212 211
234 235 235 237 236 236 226 226 228 224 222 225 219 207 205 201 204 206 205 210 215 222 218 220 221 231 234 235 222 218 212 219 219 214 214 216 214 208 212 202 205 210
237 234 237 236 232 225 230 233 234 228 228 224 219 205 207 199 202 201 200 205 210 215 220 220 215 223 228 235 234 232 220 215 212 204 211 214 213 207 206 204 208 210
239 233 239 233 238 228 233 237 234 230 229 226 210 220 198 202 200 199 198 203 204 210 214 215 214 215 216 221 227 233 231 221 210 205 212 218 212 211 207 201 207 213
234 231 231 228 234 235 236 240 235 229 230 225 225 225 201 208 205 197 196 196 203 209 213 217 219 216 209 207 217 223 226 216 211 206 213 216 205 212 207 207 204 209
238 234 222 224 229 234 234 236 236 235 219 223 230 227 221 215 206 201 196 195 201 206 207 214 216 215 208 207 217 219 219 215 209 205 209 210 208 212 205 200 203 209
242 243 229 230 231 234 234 233 223 224 211 224 227 219 221 224 214 204 199 198 202 204 206 209 213 215 214 214 217 216 219 217 211 209 210 211 212 213 206 198 205 204
244 237 236 235 234 234 236 232 225 222 214 220 217 221 220 214 222 210 206 204 206 204 204 206 208 205 212 218 220 217 218 218 214 212 212 214 213 213 206 202 205 206
237 231 233 237 237 236 233 228 224 220 218 221 212 219 215 215 210 208 206 209 209 208 203 204 203 207 213 216 214 212 215 217 216 214 216 217 217 215 208 203 204 205
243 240 235 231 226 225 219 216 218 217 213 219 206 212 212 213 212 211 214 208 212 206 205 200 201 208 216 217 216 213 213 214 214 214 214 216 216 212 206 204 202 193
241 240 238 239 243 242 229 221 213 211 214 213 198 211 213 210 208 208 213 208 211 207 207 200 200 206 213 215 214 212 211 214 212 211 212 213 215 210 201 200 197 191
246 245 240 240 236 232 231 228 223 214 206 205 206 214 210 211 208 205 205 212 213 209 207 202 205 207 205 207 209 213 213 214 214 213 210 211 209 206 200 194 190 184
247 251 241 236 229 229 231 227 220 217 209 206 212 211 209 205 204 206 209 207 205 208 206 205 212 210 204 207 207 208 207 212 212 214 210 208 202 197 195 193 187 181
249 246 242 239 233 237 233 225 219 208 211 216 215 210 209 204 198 209 213 207 206 203 204 208 210 206 206 201 205 206 204 206 204 208 207 204 199 192 194 190 182 175
246 248 242 240 234 234 227 218 203 200 208 212 213 212 211 190 207 215 210 208 206 206 208 208 210 206 201 202 203 199 202 199 201 203 202 203 200 195 191 183 176 167
249 244 243 240 233 231 221 207 203 205 207 204 209 204 181 199 212 205 212 207 204 206 211 208 212 205 201 197 208 201 189 195 199 203 198 204 198 194 186 178 171 162
250 245 247 244 237 226 212 212 209 216 212 206 198 186 194 203 204 207 206 205 204 205 208 209 211 213 204 199 211 208 197 185 206 200 204 202 198 191 185 178 173 169
252 246 249 249 234 223 216 218 217 225 218 211 201 197 196 200 199 204 207 203 201 199 203 208 214 205 201 202 205 206 201 192 201 202 200 203 199 193 185 176 171 169
254 254 251 248 236 227 223 226 221 216 213 203 200 207 211 203 213 204 202 200 199 197 201 213 213 201 198 203 198 202 200 196 199 200 201 201 199 192 181 171 167 166
260 255 253 243 232 229 231 230 225 221 216 183 198 202 199 202 205 200 198 194 193 196 200 215 216 204 202 205 204 202 200 197 194 197 198 196 196 184 174 165 165 166
258 247 250 242 228 229 231 235 230 228 213 190 201 196 206 209 199 197 197 193 190 197 200 204 214 202 199 203 203 203 197 192 187 190 192 183 170 158 152 152 156 159
263 250 245 242 236 234 225 224 212 210 191 177 209 195 207 180 186 185 190 190 197 199 197 199 196 193 197 200 200 199 194 181 182 183 176 162 144 128 129 143 147 158
265 255 249 241 240 235 219 213 183 152 159 170 183 172 177 176 182 181 180 191 181 183 188 187 179 185 196 197 197 200 193 170 173 176 178 165 157 156 146 145 143 146